Satellite: PO-28
Catalog number: 22829
Epoch time:      08212.82686759
Element set:       2
Inclination:      098.3670 deg
RA of node:       173.2047 deg
Eccentricity:    0.0010629
Arg of perigee:   098.0956 deg
Mean anomaly:     262.1425 deg
Mean motion:   14.30193917 rev/day
Decay rate:        2.0e-07 rev/day^2
Epoch rev:           77436
Checksum:              311

Satellite: GO-32
Catalog number: 25397
Epoch time:      08213.82581299
Element set:     660
Inclination:      098.3618 deg
RA of node:       246.7785 deg
Eccentricity:    0.0002222
Arg of perigee:   099.8864 deg
Mean anomaly:     260.2532 deg
Mean motion:   14.23146149 rev/day
Decay rate:       -5.0e-07 rev/day^2
Epoch rev:           52256
Checksum:              319

Satellite: NO-44
Catalog number: 26931
Epoch time:      08213.36303759
Element set:     940
Inclination:      067.0511 deg
RA of node:       170.8522 deg
Eccentricity:    0.0007341
Arg of perigee:   269.0984 deg
Mean anomaly:     090.9258 deg
Mean motion:   14.29529078 rev/day
Decay rate:      -1.17e-06 rev/day^2
Epoch rev:           35672
Checksum:              313

Satellite: SO-50
Catalog number: 27607
Epoch time:      08213.66115028
Element set:     665
Inclination:      064.5592 deg
RA of node:       278.5716 deg
Eccentricity:    0.0086377
Arg of perigee:   270.6969 deg
Mean anomaly:     088.4241 deg
Mean motion:   14.71370676 rev/day
Decay rate:       -6.4e-07 rev/day^2
Epoch rev:           30151
Checksum:              325

Satellite: CO-55
Catalog number: 27844
Epoch time:      08212.54182104
Element set:    0363
Inclination:      098.7160 deg
RA of node:       220.2056 deg
Eccentricity:    0.0010204
Arg of perigee:   357.3868 deg
Mean anomaly:     002.7256 deg
Mean motion:   14.20589724 rev/day
Decay rate:        2.1e-07 rev/day^2
Epoch rev:           26359
Checksum:              283

Satellite: CO-57
Catalog number: 27848
Epoch time:      08213.53194110
Element set:     313
Inclination:      098.7168 deg
RA of node:       220.2709 deg
Eccentricity:    0.0010139
Arg of perigee:   357.6129 deg
Mean anomaly:     002.5001 deg
Mean motion:   14.20398313 rev/day
Decay rate:        6.0e-08 rev/day^2
Epoch rev:           26370
Checksum:              272

Satellite: AO-51
Catalog number: 28375
Epoch time:      08212.80578132
Element set:     161
Inclination:      098.0688 deg
RA of node:       234.9186 deg
Eccentricity:    0.0085207
Arg of perigee:   020.9024 deg
Mean anomaly:     339.5609 deg
Mean motion:   14.40614412 rev/day
Decay rate:       -6.0e-08 rev/day^2
Epoch rev:           21468
Checksum:              299

Satellite: CO-56
Catalog number: 28941
Epoch time:      08213.77244585
Element set:     246
Inclination:      098.1112 deg
RA of node:       330.6536 deg
Eccentricity:    0.0159797
Arg of perigee:   238.5881 deg
Mean anomaly:     119.9649 deg
Mean motion:   15.58542963 rev/day
Decay rate:     1.5108e-04 rev/day^2
Epoch rev:           13698
Checksum:              361

Satellite: CP4
Catalog number: 31122
Epoch time:      08213.72039777
Element set:     400
Inclination:      098.0404 deg
RA of node:       277.6572 deg
Eccentricity:    0.0085560
Arg of perigee:   189.5971 deg
Mean anomaly:     170.3537 deg
Mean motion:   14.55147458 rev/day
Decay rate:       5.51e-06 rev/day^2
Epoch rev:            6855
Checksum:              312

Satellite: CP3
Catalog number: 31128
Epoch time:      08213.64630657
Element set:     394
Inclination:      098.0363 deg
RA of node:       275.1994 deg
Eccentricity:    0.0102606
Arg of perigee:   196.7516 deg
Mean anomaly:     163.0298 deg
Mean motion:   14.51963499 rev/day
Decay rate:       -4.7e-07 rev/day^2
Epoch rev:            6838
Checksum:              328

/EX
SB KEPS @ AMSAT  $ORB08213.W
Orbital Elements  08213.WEATHER

HR AMSAT ORBITAL ELEMENTS FOR WEATHER SATELLITES
FROM WA5QGD FORT WORTH,TX July 31, 2008
Send Subscribe/unsubscribe to KEPS at 
http://www.amsat.org/mailman/listinfo/keps
BID: ORB08213.W
TO ALL RADIO AMATEURS BT

Satellite: NOAA-10
Catalog number: 16969
Epoch time:      08212.96652190
Element set:    0226
Inclination:      098.7219 deg
RA of node:       234.8455 deg
Eccentricity:    0.0013236
Arg of perigee:   055.3397 deg
Mean anomaly:     304.9038 deg
Mean motion:   14.27364319 rev/day
Decay rate:       -8.0e-07 rev/day^2
Epoch rev:           13768
Checksum:              319

Satellite: NOAA-11
Catalog number: 19531
Epoch time:      08212.80017913
Element set:    0256
Inclination:      098.7981 deg
RA of node:       301.5181 deg
Eccentricity:    0.0010935
Arg of perigee:   306.8035 deg
Mean anomaly:     053.2140 deg
Mean motion:   14.14874759 rev/day
Decay rate:       2.25e-06 rev/day^2
Epoch rev:           02407
Checksum:              277

Satellite: NOAA-12
Catalog number: 21263
Epoch time:      08212.92943773
Element set:    0786
Inclination:      098.7678 deg
RA of node:       214.8769 deg
Eccentricity:    0.0012883
Arg of perigee:   003.5244 deg
Mean anomaly:     356.6023 deg
Mean motion:   14.25540091 rev/day
Decay rate:       -2.0e-08 rev/day^2
Epoch rev:           89462
Checksum:              317

